Location: Unspecified
(0.0000°N, 0.0000°E)
Time: 04:34:12
(UTC+00:00)

Envisat - Pass Details

Date: 14 June 2019
Orbit: 764 x 766 km, 98.1° (Epoch: 26 June)

Event Time Altitude Azimuth Distance (km) Brightness Sun altitude
Rises 19:47:46 0° 198° (SSW) 3,231 6.2 -24.5°
Reaches altitude 10° 19:50:48 10° 217° (SW) 2,302 5.6 -25.2°
Maximum altitude 19:54:05 17° 257° (WSW) 1,835 5.5 -25.9°
Drops below altitude 10° 19:57:22 10° 298° (WNW) 2,295 6.5 -26.7°
Sets 20:00:25 0° 318° (NW) 3,218 7.3 -27.4°
